Time,TemperatureF,DewpointF,PressureIn,WindDirection,WindDirectionDegrees,WindSpeedMPH,WindSpeedGustMPH,Humidity,HourlyPrecipIn,Conditions,Clouds,dailyrainin,SoftwareType,DateUTC
2013-05-12 00:02:00,52.7,33.6,29.47,North,8,0.0,0.0,48,-99.99,,,-99.99,WSDL version 426,2013-05-12 05:02:00,
2013-05-12 00:07:00,52.5,33.4,29.47,West,270,0.0,0.0,48,-99.99,,,-99.99,WSDL version 426,2013-05-12 05:07:00,
2013-05-12 00:12:00,52.3,33.6,29.47,West,270,0.0,0.0,49,-99.99,,,-99.99,WSDL version 426,2013-05-12 05:12:00,
2013-05-12 00:17:00,52.1,33.9,29.47,West,270,0.0,0.0,50,-99.99,,,-99.99,WSDL version 426,2013-05-12 05:17:00,
2013-05-12 00:22:00,51.9,34.0,29.47,West,270,0.0,0.0,51,-99.99,,,-99.99,WSDL version 426,2013-05-12 05:22:00,
2013-05-12 00:27:00,51.7,34.3,29.47,West,270,0.0,0.0,52,0.00,,,0.00,WSDL version 426,2013-05-12 05:27:00,
2013-05-12 00:32:00,51.3,34.5,29.47,West,270,0.0,0.0,53,0.00,,,0.00,WSDL version 426,2013-05-12 05:32:00,
2013-05-12 00:37:00,51.0,34.7,29.47,SE,135,0.0,0.0,54,-99.99,,,-99.99,WSDL version 426,2013-05-12 05:37:00,
2013-05-12 00:42:00,50.5,34.7,29.47,SE,135,0.0,0.0,55,-99.99,,,-99.99,WSDL version 426,2013-05-12 05:42:00,
2013-05-12 00:47:00,50.2,34.7,29.47,SE,135,0.0,0.0,55,0.00,,,0.00,WSDL version 426,2013-05-12 05:47:00,
2013-05-12 00:52:00,50.0,34.8,29.47,SE,135,0.0,0.0,56,-99.99,,,-99.99,WSDL version 426,2013-05-12 05:52:00,
2013-05-12 00:57:00,49.7,34.9,29.47,SSE,163,0.0,0.0,57,-99.99,,,-99.99,WSDL version 426,2013-05-12 05:57:00,
2013-05-12 01:02:00,49.5,34.9,29.47,West,270,0.0,0.0,57,-99.99,,,-99.99,WSDL version 426,2013-05-12 06:02:00,
2013-05-12 01:07:00,49.6,35.3,29.47,West,270,1.9,3.8,59,0.00,,,0.00,WSDL version 426,2013-05-12 06:07:00,
2013-05-12 01:12:00,49.7,36.0,29.47,WNW,290,3.5,4.0,59,0.00,,,0.00,WSDL version 426,2013-05-12 06:12:00,
2013-05-12 01:17:00,49.9,35.3,29.47,WNW,293,1.8,4.0,56,-99.99,,,-99.99,WSDL version 426,2013-05-12 06:17:00,
2013-05-12 01:22:00,50.2,35.0,29.47,WNW,293,0.6,3.1,57,-99.99,,,-99.99,WSDL version 426,2013-05-12 06:22:00,
2013-05-12 01:27:00,49.7,35.6,29.47,WNW,293,0.0,1.6,59,-99.99,,,-99.99,WSDL version 426,2013-05-12 06:27:00,
2013-05-12 01:32:00,49.4,35.4,29.47,WNW,293,0.0,0.0,59,-99.99,,,-99.99,WSDL version 426,2013-05-12 06:32:00,
2013-05-12 01:37:00,49.1,35.4,29.47,WNW,293,0.0,0.0,59,-99.99,,,-99.99,WSDL version 426,2013-05-12 06:37:00,
2013-05-12 01:42:00,48.9,35.2,29.47,WNW,293,0.0,1.3,59,-99.99,,,-99.99,WSDL version 426,2013-05-12 06:42:00,
2013-05-12 01:47:00,48.6,35.3,29.47,WNW,293,1.1,1.6,60,-99.99,,,-99.99,WSDL version 426,2013-05-12 06:47:00,
2013-05-12 01:52:00,48.2,35.4,29.47,WNW,293,1.2,2.0,62,-99.99,,,-99.99,WSDL version 426,2013-05-12 06:52:00,
2013-05-12 01:57:00,47.9,35.2,29.47,WNW,293,0.0,2.0,62,-99.99,,,-99.99,WSDL version 426,2013-05-12 06:57:00,
2013-05-12 02:02:00,47.8,35.4,29.47,WNW,293,0.0,1.6,62,-99.99,,,-99.99,WSDL version 426,2013-05-12 07:02:00,
2013-05-12 02:07:00,47.8,35.4,29.47,West,270,2.3,2.9,62,0.00,,,0.00,WSDL version 426,2013-05-12 07:07:00,
2013-05-12 02:12:00,48.0,35.6,29.47,West,270,1.2,2.9,62,-99.99,,,-99.99,WSDL version 426,2013-05-12 07:12:00,
2013-05-12 02:17:00,47.9,35.5,29.47,West,270,2.1,2.5,62,-99.99,,,-99.99,WSDL version 426,2013-05-12 07:17:00,
2013-05-12 02:22:00,47.8,35.5,29.47,West,270,1.5,2.5,62,-99.99,,,-99.99,WSDL version 426,2013-05-12 07:22:00,
2013-05-12 02:27:00,47.8,35.5,29.47,West,270,1.8,2.5,62,-99.99,,,-99.99,WSDL version 426,2013-05-12 07:27:00,
2013-05-12 02:32:00,48.0,35.5,29.47,West,270,0.0,2.5,62,-99.99,,,-99.99,WSDL version 426,2013-05-12 07:32:00,
2013-05-12 02:37:00,47.6,35.5,29.47,SE,135,0.0,1.3,63,-99.99,,,-99.99,WSDL version 426,2013-05-12 07:37:00,
2013-05-12 02:42:00,47.1,35.4,29.47,SE,135,0.0,1.6,64,-99.99,,,-99.99,WSDL version 426,2013-05-12 07:42:00,
2013-05-12 02:47:00,46.6,35.4,29.47,SE,135,0.5,2.0,65,-99.99,,,-99.99,WSDL version 426,2013-05-12 07:47:00,
2013-05-12 02:52:00,46.3,35.4,29.47,SE,135,0.0,2.0,66,-99.99,,,-99.99,WSDL version 426,2013-05-12 07:52:00,
2013-05-12 02:57:00,46.0,35.7,29.47,SE,135,0.0,0.0,67,-99.99,,,-99.99,WSDL version 426,2013-05-12 07:57:00,
2013-05-12 03:02:00,46.0,35.7,29.47,SE,135,0.0,0.0,67,-99.99,,,-99.99,WSDL version 426,2013-05-12 08:02:00,
2013-05-12 03:07:00,45.9,35.6,29.47,SE,135,0.0,0.0,67,-99.99,,,-99.99,WSDL version 426,2013-05-12 08:07:00,
2013-05-12 03:12:00,45.9,35.5,29.47,SE,135,0.0,0.0,67,-99.99,,,-99.99,WSDL version 426,2013-05-12 08:12:00,
2013-05-12 03:17:00,45.9,35.8,29.47,North,360,0.4,2.5,67,-99.99,,,-99.99,WSDL version 426,2013-05-12 08:17:00,
2013-05-12 03:22:00,45.9,35.5,29.47,NNW,338,2.0,2.5,67,-99.99,,,-99.99,WSDL version 426,2013-05-12 08:22:00,
2013-05-12 03:27:00,45.9,35.5,29.47,North,360,1.9,2.7,67,-99.99,,,-99.99,WSDL version 426,2013-05-12 08:27:00,
2013-05-12 03:32:00,45.9,35.7,29.47,North,360,0.0,2.7,68,-99.99,,,-99.99,WSDL version 426,2013-05-12 08:32:00,
2013-05-12 03:37:00,45.9,35.9,29.47,North,360,0.0,2.5,68,-99.99,,,-99.99,WSDL version 426,2013-05-12 08:37:00,
2013-05-12 03:42:00,45.7,35.7,29.47,North,360,0.0,0.0,68,-99.99,,,-99.99,WSDL version 426,2013-05-12 08:42:00,
2013-05-12 03:47:00,45.5,35.7,29.47,North,360,0.0,0.0,69,-99.99,,,-99.99,WSDL version 426,2013-05-12 08:47:00,
2013-05-12 03:52:00,45.3,35.4,29.47,North,360,0.0,0.0,69,-99.99,,,-99.99,WSDL version 426,2013-05-12 08:52:00,
2013-05-12 03:57:00,45.1,35.2,29.47,WSW,248,0.6,2.0,68,-99.99,,,-99.99,WSDL version 426,2013-05-12 08:57:00,
2013-05-12 04:02:00,44.8,35.0,29.47,WSW,248,0.0,2.0,69,-99.99,,,-99.99,WSDL version 426,2013-05-12 09:02:00,
2013-05-12 04:07:00,44.5,35.2,29.47,WSW,248,1.7,2.2,70,-99.99,,,-99.99,WSDL version 426,2013-05-12 09:07:00,
2013-05-12 04:12:00,44.0,35.2,29.47,WSW,248,1.0,2.2,71,-99.99,,,-99.99,WSDL version 426,2013-05-12 09:12:00,
2013-05-12 04:17:00,43.7,34.9,29.47,WSW,248,0.0,1.6,71,-99.99,,,-99.99,WSDL version 426,2013-05-12 09:17:00,
2013-05-12 04:22:00,43.5,34.9,29.47,WSW,248,0.0,1.6,72,-99.99,,,-99.99,WSDL version 426,2013-05-12 09:22:00,
2013-05-12 04:27:00,43.3,34.9,29.47,WSW,248,0.0,0.0,72,-99.99,,,-99.99,WSDL version 426,2013-05-12 09:27:00,
2013-05-12 04:32:00,43.3,35.3,29.47,WSW,248,0.0,0.0,73,-99.99,,,-99.99,WSDL version 426,2013-05-12 09:32:00,
2013-05-12 04:37:00,43.2,35.1,29.47,WSW,248,0.0,0.0,73,-99.99,,,-99.99,WSDL version 426,2013-05-12 09:37:00,
2013-05-12 04:42:00,43.2,35.1,29.44,WNW,293,0.0,0.0,73,-99.99,,,-99.99,WSDL version 426,2013-05-12 09:42:00,
2013-05-12 04:47:00,43.2,35.1,29.44,WNW,293,0.0,0.0,73,-99.99,,,-99.99,WSDL version 426,2013-05-12 09:47:00,
2013-05-12 04:52:00,43.2,35.1,29.44,WNW,293,0.0,0.0,73,-99.99,,,-99.99,WSDL version 426,2013-05-12 09:52:00,
2013-05-12 04:57:00,43.3,35.2,29.44,South,173,0.0,0.0,73,-99.99,,,-99.99,WSDL version 426,2013-05-12 09:57:00,
2013-05-12 05:02:00,43.1,35.0,29.44,SW,217,0.0,0.0,73,-99.99,,,-99.99,WSDL version 426,2013-05-12 10:02:00,
2013-05-12 05:07:00,42.9,35.0,29.44,West,268,0.0,1.1,74,-99.99,,,-99.99,WSDL version 426,2013-05-12 10:07:00,
2013-05-12 05:12:00,42.8,35.1,29.47,SW,225,0.0,1.1,74,-99.99,,,-99.99,WSDL version 426,2013-05-12 10:12:00,
2013-05-12 05:17:00,42.8,35.1,29.47,SSE,158,0.0,1.1,74,-99.99,,,-99.99,WSDL version 426,2013-05-12 10:17:00,
2013-05-12 05:22:00,42.8,35.1,29.47,SSE,158,0.0,0.0,74,-99.99,,,-99.99,WSDL version 426,2013-05-12 10:22:00,
2013-05-12 05:27:00,42.4,34.7,29.47,SSE,158,0.0,0.9,74,-99.99,,,-99.99,WSDL version 426,2013-05-12 10:27:00,
2013-05-12 05:32:00,42.1,34.5,29.47,South,178,0.0,0.9,75,-99.99,,,-99.99,WSDL version 426,2013-05-12 10:32:00,
2013-05-12 05:37:00,42.1,34.7,29.47,SE,135,0.0,0.0,75,-99.99,,,-99.99,WSDL version 426,2013-05-12 10:37:00,
2013-05-12 05:42:00,42.0,34.6,29.47,SE,135,0.0,0.0,75,-99.99,,,-99.99,WSDL version 426,2013-05-12 10:42:00,
2013-05-12 05:47:00,41.8,34.5,29.47,SE,135,0.0,0.0,75,-99.99,,,-99.99,WSDL version 426,2013-05-12 10:47:00,
2013-05-12 05:52:00,41.6,34.6,29.47,SE,135,0.0,0.0,76,-99.99,,,-99.99,WSDL version 426,2013-05-12 10:52:00,
2013-05-12 05:57:00,41.3,34.3,29.50,South,170,0.0,0.0,76,-99.99,,,-99.99,WSDL version 426,2013-05-12 10:57:00,
2013-05-12 06:02:00,41.2,34.2,29.50,ESE,113,1.8,2.5,76,-99.99,,,-99.99,WSDL version 426,2013-05-12 11:02:00,
2013-05-12 06:07:00,41.2,34.2,29.50,ESE,113,0.0,2.5,76,-99.99,,,-99.99,WSDL version 426,2013-05-12 11:07:00,
2013-05-12 06:12:00,41.2,34.3,29.47,ESE,113,0.0,2.2,77,-99.99,,,-99.99,WSDL version 426,2013-05-12 11:12:00,
2013-05-12 06:17:00,41.4,34.7,29.47,East,100,0.0,2.2,77,-99.99,,,-99.99,WSDL version 426,2013-05-12 11:17:00,
2013-05-12 06:22:00,41.4,34.5,29.47,West,270,1.9,2.7,77,-99.99,,,-99.99,WSDL version 426,2013-05-12 11:22:00,
2013-05-12 06:27:00,41.5,34.8,29.47,West,270,0.0,2.7,77,-99.99,,,-99.99,WSDL version 426,2013-05-12 11:27:00,
2013-05-12 06:32:00,41.4,34.8,29.47,West,260,1.2,2.0,77,-99.99,,,-99.99,WSDL version 426,2013-05-12 11:32:00,
2013-05-12 06:37:00,41.5,34.8,29.47,South,186,0.6,2.0,77,-99.99,,,-99.99,WSDL version 426,2013-05-12 11:37:00,
2013-05-12 06:42:00,41.5,34.9,29.47,WSW,248,1.1,2.5,77,-99.99,,,-99.99,WSDL version 426,2013-05-12 11:42:00,
2013-05-12 06:47:00,41.6,35.3,29.47,WSW,253,3.3,5.4,80,-99.99,,,-99.99,WSDL version 426,2013-05-12 11:47:00,
2013-05-12 06:52:00,41.8,36.6,29.47,West,281,3.6,5.4,82,-99.99,,,-99.99,WSDL version 426,2013-05-12 11:52:00,
2013-05-12 06:57:00,42.1,37.1,29.50,WNW,293,0.2,5.4,82,-99.99,,,-99.99,WSDL version 426,2013-05-12 11:57:00,
2013-05-12 07:02:00,42.4,37.2,29.50,NNW,332,1.6,3.8,81,-99.99,,,-99.99,WSDL version 426,2013-05-12 12:02:00,
2013-05-12 07:07:00,43.0,38.1,29.50,NNW,330,4.6,6.7,84,-99.99,,,-99.99,WSDL version 426,2013-05-12 12:07:00,
2013-05-12 07:12:00,43.7,39.3,29.50,NNW,338,3.2,6.7,84,-99.99,,,-99.99,WSDL version 426,2013-05-12 12:12:00,
2013-05-12 07:17:00,44.3,39.7,29.50,NNW,338,1.6,4.3,83,-99.99,,,-99.99,WSDL version 426,2013-05-12 12:17:00,
2013-05-12 07:22:00,44.9,39.8,29.50,NW,305,3.0,4.0,82,-99.99,,,-99.99,WSDL version 426,2013-05-12 12:22:00,
2013-05-12 07:27:00,45.5,40.0,29.53,NW,309,3.5,4.9,80,-99.99,,,-99.99,WSDL version 426,2013-05-12 12:27:00,
2013-05-12 07:32:00,46.1,39.6,29.53,WNW,293,3.4,4.9,77,-99.99,,,-99.99,WSDL version 426,2013-05-12 12:32:00,
2013-05-12 07:37:00,46.6,39.5,29.53,NW,318,2.5,4.3,76,-99.99,,,-99.99,WSDL version 426,2013-05-12 12:37:00,
2013-05-12 07:42:00,47.2,39.7,29.50,NW,323,2.7,4.3,74,-99.99,,,-99.99,WSDL version 426,2013-05-12 12:42:00,
2013-05-12 07:47:00,47.8,39.6,29.50,NW,326,2.6,3.8,73,-99.99,,,-99.99,WSDL version 426,2013-05-12 12:47:00,
2013-05-12 07:52:00,48.3,39.7,29.50,NNW,340,2.9,3.8,72,-99.99,,,-99.99,WSDL version 426,2013-05-12 12:52:00,
2013-05-12 07:57:00,48.8,39.8,29.50,NNW,340,2.5,3.6,71,-99.99,,,-99.99,WSDL version 426,2013-05-12 12:57:00,
2013-05-12 08:02:00,49.4,40.4,29.50,NNW,346,2.2,4.0,71,-99.99,,,-99.99,WSDL version 426,2013-05-12 13:02:00,
2013-05-12 08:07:00,50.1,40.7,29.50,North,350,2.5,4.7,69,-99.99,,,-99.99,WSDL version 426,2013-05-12 13:07:00,
2013-05-12 08:12:00,50.8,40.8,29.50,NNE,20,1.5,4.7,68,-99.99,,,-99.99,WSDL version 426,2013-05-12 13:12:00,
2013-05-12 08:17:00,51.4,40.1,29.50,North,5,2.9,4.0,63,-99.99,,,-99.99,WSDL version 426,2013-05-12 13:17:00,
2013-05-12 08:22:00,51.9,38.8,29.50,North,10,2.8,4.3,60,-99.99,,,-99.99,WSDL version 426,2013-05-12 13:22:00,
2013-05-12 08:27:00,52.6,39.1,29.50,North,3,2.3,4.3,60,-99.99,,,-99.99,WSDL version 426,2013-05-12 13:27:00,
2013-05-12 08:32:00,53.1,38.7,29.50,NE,45,4.3,6.3,57,-99.99,,,-99.99,WSDL version 426,2013-05-12 13:32:00,
2013-05-12 08:37:00,53.7,37.7,29.50,NE,37,4.9,6.3,54,-99.99,,,-99.99,WSDL version 426,2013-05-12 13:37:00,
2013-05-12 08:42:00,54.2,37.0,29.50,NE,45,3.5,6.3,51,-99.99,,,-99.99,WSDL version 426,2013-05-12 13:42:00,
2013-05-12 08:47:00,54.6,36.3,29.50,NE,34,3.5,6.3,50,-99.99,,,-99.99,WSDL version 426,2013-05-12 13:47:00,
2013-05-12 08:52:00,55.0,36.8,29.50,NE,43,4.3,5.6,50,-99.99,,,-99.99,WSDL version 426,2013-05-12 13:52:00,
2013-05-12 08:57:00,55.5,36.7,29.53,ENE,62,3.4,5.6,49,0.00,,,0.00,WSDL version 426,2013-05-12 13:57:00,
2013-05-12 09:02:00,56.2,37.0,29.53,ESE,103,4.1,5.8,48,-99.99,,,-99.99,WSDL version 426,2013-05-12 14:02:00,
2013-05-12 09:07:00,56.7,37.2,29.53,East,93,3.9,5.8,47,-99.99,,,-99.99,WSDL version 426,2013-05-12 14:07:00,
2013-05-12 09:12:00,57.2,36.8,29.50,ENE,68,3.4,6.0,46,-99.99,,,-99.99,WSDL version 426,2013-05-12 14:12:00,
2013-05-12 09:17:00,57.8,36.9,29.50,ENE,75,5.8,7.4,45,-99.99,,,-99.99,WSDL version 426,2013-05-12 14:17:00,
2013-05-12 09:22:00,58.2,36.9,29.50,ENE,62,4.4,7.4,45,-99.99,,,-99.99,WSDL version 426,2013-05-12 14:22:00,
2013-05-12 09:27:00,58.6,35.5,29.53,East,100,5.1,7.4,41,-99.99,,,-99.99,WSDL version 426,2013-05-12 14:27:00,
2013-05-12 09:32:00,59.0,35.0,29.53,East,84,3.9,7.4,40,-99.99,,,-99.99,WSDL version 426,2013-05-12 14:32:00,
2013-05-12 09:37:00,59.5,35.2,29.53,ENE,78,3.6,6.3,40,-99.99,,,-99.99,WSDL version 426,2013-05-12 14:37:00,
2013-05-12 09:42:00,60.1,35.0,29.53,East,101,3.1,6.5,39,-99.99,,,-99.99,WSDL version 426,2013-05-12 14:42:00,
2013-05-12 09:47:00,60.6,35.6,29.53,ENE,73,3.0,6.5,39,-99.99,,,-99.99,WSDL version 426,2013-05-12 14:47:00,
2013-05-12 09:52:00,61.1,35.3,29.53,East,87,4.1,7.4,38,-99.99,,,-99.99,WSDL version 426,2013-05-12 14:52:00,
2013-05-12 09:57:00,61.6,35.2,29.53,ENE,73,3.1,7.4,37,-99.99,,,-99.99,WSDL version 426,2013-05-12 14:57:00,
2013-05-12 10:02:00,62.1,35.6,29.53,ENE,75,3.0,6.3,38,-99.99,,,-99.99,WSDL version 426,2013-05-12 15:02:00,
2013-05-12 10:07:00,62.7,35.9,29.53,NE,34,3.4,6.0,36,-99.99,,,-99.99,WSDL version 426,2013-05-12 15:07:00,
2013-05-12 10:12:00,63.0,35.6,29.53,NE,35,2.6,6.0,36,-99.99,,,-99.99,WSDL version 426,2013-05-12 15:12:00,
2013-05-12 10:17:00,63.4,35.7,29.53,NNE,25,4.1,6.0,35,-99.99,,,-99.99,WSDL version 426,2013-05-12 15:17:00,
2013-05-12 10:22:00,63.7,35.5,29.53,NE,37,3.8,8.7,35,-99.99,,,-99.99,WSDL version 426,2013-05-12 15:22:00,
2013-05-12 10:27:00,64.3,35.5,29.53,East,88,3.7,8.7,34,-99.99,,,-99.99,WSDL version 426,2013-05-12 15:27:00,
2013-05-12 10:32:00,64.7,35.6,29.53,SE,124,3.6,7.4,33,-99.99,,,-99.99,WSDL version 426,2013-05-12 15:32:00,
2013-05-12 10:37:00,65.2,35.4,29.53,ENE,78,5.3,7.6,33,-99.99,,,-99.99,WSDL version 426,2013-05-12 15:37:00,
2013-05-12 10:42:00,65.6,35.8,29.50,NE,48,2.5,7.6,33,-99.99,,,-99.99,WSDL version 426,2013-05-12 15:42:00,
2013-05-12 10:47:00,66.0,34.7,29.50,ESE,115,5.8,7.6,30,0.00,,,0.00,WSDL version 426,2013-05-12 15:47:00,
2013-05-12 10:52:00,66.1,33.4,29.50,ESE,118,5.3,8.1,31,0.00,,,0.00,WSDL version 426,2013-05-12 15:52:00,
2013-05-12 10:57:00,66.6,34.5,29.50,East,101,3.0,8.1,31,0.00,,,0.00,WSDL version 426,2013-05-12 15:57:00,
2013-05-12 11:02:00,66.9,34.1,29.50,ESE,115,5.9,8.5,29,-99.99,,,-99.99,WSDL version 426,2013-05-12 16:02:00,
2013-05-12 11:07:00,67.2,33.6,29.50,ESE,121,5.5,8.5,28,0.00,,,0.00,WSDL version 426,2013-05-12 16:07:00,
2013-05-12 11:12:00,67.4,32.7,29.50,ESE,110,5.4,8.1,28,0.00,,,0.00,WSDL version 426,2013-05-12 16:12:00,
2013-05-12 11:17:00,67.9,33.3,29.50,ESE,115,5.0,8.1,27,0.00,,,0.00,WSDL version 426,2013-05-12 16:17:00,
2013-05-12 11:22:00,68.0,32.2,29.50,ESE,115,4.6,8.9,25,0.00,,,0.00,WSDL version 426,2013-05-12 16:22:00,
2013-05-12 11:27:00,68.1,32.0,29.50,ENE,63,4.5,8.9,26,0.00,,,0.00,WSDL version 426,2013-05-12 16:27:00,
2013-05-12 11:32:00,68.4,32.2,29.50,ESE,118,4.4,8.5,26,0.00,,,0.00,WSDL version 426,2013-05-12 16:32:00,
2013-05-12 11:37:00,68.8,31.7,29.50,SE,135,4.4,8.5,24,0.00,,,0.00,WSDL version 426,2013-05-12 16:37:00,
2013-05-12 11:42:00,69.1,31.0,29.50,NE,56,5.5,7.6,24,0.00,,,0.00,WSDL version 426,2013-05-12 16:42:00,
2013-05-12 11:47:00,69.8,31.8,29.50,NNE,28,2.1,7.6,24,0.00,,,0.00,WSDL version 426,2013-05-12 16:47:00,
2013-05-12 11:52:00,70.0,31.5,29.50,ENE,62,3.7,6.0,24,0.00,,,0.00,WSDL version 426,2013-05-12 16:52:00,
2013-05-12 11:57:00,70.2,31.9,29.50,SE,128,3.9,7.4,24,0.00,,,0.00,WSDL version 426,2013-05-12 16:57:00,
2013-05-12 12:02:00,70.3,32.0,29.50,ESE,118,4.8,7.4,24,0.00,,,0.00,WSDL version 426,2013-05-12 17:02:00,
2013-05-12 12:09:00,70.9,32.3,29.50,East,96,1.1,7.2,24,0.00,,,0.00,WSDL version 426,2013-05-12 17:09:00,
2013-05-12 12:15:00,71.2,33.3,29.50,NNE,18,4.2,7.6,24,0.00,,,0.00,WSDL version 426,2013-05-12 17:15:00,
2013-05-12 12:27:00,71.4,32.8,-100.00,NE,45,6.3,7.8,24,0.00,,,0.00,WSDL version 426,2013-05-12 17:27:00,
2013-05-12 12:33:00,71.8,32.8,29.50,East,83,3.4,6.9,23,0.00,,,0.00,WSDL version 426,2013-05-12 17:33:00,
2013-05-12 12:38:00,72.1,33.2,29.50,NW,323,2.9,7.2,23,0.00,,,0.00,WSDL version 426,2013-05-12 17:38:00,
2013-05-12 12:43:00,72.2,33.1,29.50,ESE,105,5.1,8.1,24,0.00,,,0.00,WSDL version 426,2013-05-12 17:43:00,
2013-05-12 12:48:00,72.7,33.3,29.50,ESE,121,3.2,8.1,23,0.00,,,0.00,WSDL version 426,2013-05-12 17:48:00,
2013-05-12 12:53:00,73.0,33.9,29.50,East,79,6.3,10.1,23,0.00,,,0.00,WSDL version 426,2013-05-12 17:53:00,
2013-05-12 12:58:00,72.9,33.1,29.50,NNE,20,4.1,10.1,23,0.00,,,0.00,WSDL version 426,2013-05-12 17:58:00,
2013-05-12 13:03:00,72.9,33.1,29.50,NE,42,6.2,10.7,23,0.00,,,0.00,WSDL version 426,2013-05-12 18:03:00,
2013-05-12 13:08:00,73.2,33.6,29.50,SE,127,3.4,10.7,23,0.00,,,0.00,WSDL version 426,2013-05-12 18:08:00,
2013-05-12 13:13:00,73.7,33.8,29.47,ESE,107,5.2,9.8,23,0.00,,,0.00,WSDL version 426,2013-05-12 18:13:00,
2013-05-12 13:18:00,74.0,34.0,29.47,East,100,4.3,9.8,24,0.00,,,0.00,WSDL version 426,2013-05-12 18:18:00,
2013-05-12 13:23:00,74.0,33.5,29.47,SSW,194,3.2,8.1,22,0.00,,,0.00,WSDL version 426,2013-05-12 18:23:00,
2013-05-12 13:28:00,73.8,33.2,29.47,East,90,5.8,8.1,23,0.00,,,0.00,WSDL version 426,2013-05-12 18:28:00,
2013-05-12 13:33:00,74.4,34.2,29.47,ENE,68,2.8,8.1,23,0.00,,,0.00,WSDL version 426,2013-05-12 18:33:00,
2013-05-12 13:38:00,74.8,33.9,29.47,ESE,113,4.0,7.4,22,0.00,,,0.00,WSDL version 426,2013-05-12 18:38:00,
2013-05-12 13:43:00,74.7,33.6,29.47,SE,145,5.0,10.3,22,0.00,,,0.00,WSDL version 426,2013-05-12 18:43:00,
2013-05-12 13:48:00,74.8,33.8,29.47,SE,124,6.0,10.3,23,0.00,,,0.00,WSDL version 426,2013-05-12 18:48:00,
2013-05-12 13:53:00,75.3,33.8,29.47,East,80,3.4,8.1,22,0.00,,,0.00,WSDL version 426,2013-05-12 18:53:00,
2013-05-12 13:58:00,75.4,33.4,29.44,ESE,104,6.3,11.0,22,0.00,,,0.00,WSDL version 426,2013-05-12 18:58:00,
2013-05-12 14:03:00,75.6,33.9,29.44,SSE,150,4.7,11.0,22,0.00,,,0.00,WSDL version 426,2013-05-12 19:03:00,
2013-05-12 14:08:00,76.0,34.4,29.44,ENE,68,4.3,8.1,22,0.00,,,0.00,WSDL version 426,2013-05-12 19:08:00,
2013-05-12 14:13:00,76.2,34.4,29.44,SE,135,5.6,8.1,22,0.00,,,0.00,WSDL version 426,2013-05-12 19:13:00,
2013-05-12 14:18:00,76.5,34.5,29.44,SE,125,3.5,8.1,21,0.00,,,0.00,WSDL version 426,2013-05-12 19:18:00,
2013-05-12 14:23:00,76.7,35.0,29.44,East,93,5.0,7.8,22,0.00,,,0.00,WSDL version 426,2013-05-12 19:23:00,
2013-05-12 14:28:00,76.7,34.4,29.44,ESE,118,4.3,10.5,21,0.00,,,0.00,WSDL version 426,2013-05-12 19:28:00,
2013-05-12 14:33:00,77.0,34.1,29.44,ENE,73,5.5,10.5,21,0.00,,,0.00,WSDL version 426,2013-05-12 19:33:00,
2013-05-12 14:38:00,77.2,34.3,29.44,East,84,5.9,8.7,21,0.00,,,0.00,WSDL version 426,2013-05-12 19:38:00,
2013-05-12 14:43:00,77.1,33.6,29.44,NE,40,3.6,7.8,20,0.00,,,0.00,WSDL version 426,2013-05-12 19:43:00,
2013-05-12 14:48:00,77.3,34.0,29.44,ENE,65,5.0,8.1,21,0.00,,,0.00,WSDL version 426,2013-05-12 19:48:00,
2013-05-12 14:53:00,77.5,34.0,29.44,ESE,120,4.4,8.1,21,0.00,,,0.00,WSDL version 426,2013-05-12 19:53:00,
2013-05-12 14:58:00,77.6,33.8,29.44,SSE,155,2.5,7.4,20,0.00,,,0.00,WSDL version 426,2013-05-12 19:58:00,
2013-05-12 15:03:00,77.6,34.6,29.44,ESE,123,5.2,8.9,21,0.00,,,0.00,WSDL version 426,2013-05-12 20:03:00,
2013-05-12 15:08:00,77.8,34.8,29.44,ESE,105,5.7,10.3,21,0.00,,,0.00,WSDL version 426,2013-05-12 20:08:00,
2013-05-12 15:13:00,77.9,34.8,29.44,East,84,4.2,10.3,21,0.00,,,0.00,WSDL version 426,2013-05-12 20:13:00,
2013-05-12 15:18:00,77.2,34.2,29.44,ESE,115,5.5,7.8,21,0.00,,,0.00,WSDL version 426,2013-05-12 20:18:00,
2013-05-12 15:23:00,76.4,33.6,29.44,East,87,3.9,8.7,21,0.00,,,0.00,WSDL version 426,2013-05-12 20:23:00,
2013-05-12 15:28:00,75.3,32.7,29.44,ESE,103,5.1,8.7,21,0.00,,,0.00,WSDL version 426,2013-05-12 20:28:00,
2013-05-12 15:33:00,74.5,32.3,29.44,ESE,118,3.2,7.4,22,0.00,,,0.00,WSDL version 426,2013-05-12 20:33:00,
2013-05-12 15:38:00,74.6,33.3,29.44,ESE,108,5.6,8.1,22,0.00,,,0.00,WSDL version 426,2013-05-12 20:38:00,
2013-05-12 15:43:00,75.6,34.1,29.47,East,85,4.3,8.1,22,0.00,,,0.00,WSDL version 426,2013-05-12 20:43:00,
2013-05-12 15:48:00,76.0,34.4,29.47,ESE,105,3.7,6.5,22,0.00,,,0.00,WSDL version 426,2013-05-12 20:48:00,
2013-05-12 15:53:00,76.1,34.6,29.47,East,88,3.3,6.5,22,0.00,,,0.00,WSDL version 426,2013-05-12 20:53:00,
2013-05-12 15:58:00,75.7,33.8,29.44,ENE,68,3.8,7.2,21,0.00,,,0.00,WSDL version 426,2013-05-12 20:58:00,
2013-05-12 16:03:00,74.5,33.2,29.44,ESE,115,5.6,10.7,22,0.00,,,0.00,WSDL version 426,2013-05-12 21:03:00,
2013-05-12 16:08:00,73.3,32.2,29.44,SE,127,10.7,15.2,22,0.00,,,0.00,WSDL version 426,2013-05-12 21:08:00,
2013-05-12 16:13:00,73.1,33.1,29.44,SSE,148,4.3,15.2,23,0.00,,,0.00,WSDL version 426,2013-05-12 21:13:00,
2013-05-12 16:18:00,73.9,33.6,29.44,SE,127,3.7,8.7,23,0.00,,,0.00,WSDL version 426,2013-05-12 21:18:00,
2013-05-12 16:23:00,73.6,33.5,29.44,SE,127,4.5,6.0,23,0.00,,,0.00,WSDL version 426,2013-05-12 21:23:00,
2013-05-12 16:28:00,73.3,33.3,29.44,ESE,118,4.7,8.7,23,0.00,,,0.00,WSDL version 426,2013-05-12 21:28:00,
2013-05-12 16:33:00,73.2,33.2,29.44,SE,127,4.1,8.7,23,0.00,,,0.00,WSDL version 426,2013-05-12 21:33:00,
2013-05-12 16:38:00,73.3,33.3,29.44,ESE,115,3.3,6.9,23,0.00,,,0.00,WSDL version 426,2013-05-12 21:38:00,
2013-05-12 16:43:00,73.4,33.4,29.44,ESE,121,4.5,6.5,23,0.00,,,0.00,WSDL version 426,2013-05-12 21:43:00,
2013-05-12 16:48:00,74.1,33.8,29.44,SE,130,3.7,6.9,23,0.00,,,0.00,WSDL version 426,2013-05-12 21:48:00,
2013-05-12 16:53:00,74.9,34.2,29.44,ESE,120,4.8,7.6,22,0.00,,,0.00,WSDL version 426,2013-05-12 21:53:00,
2013-05-12 16:58:00,76.6,35.5,29.44,SE,124,6.5,8.5,22,0.00,,,0.00,WSDL version 426,2013-05-12 21:58:00,
2013-05-12 17:03:00,77.5,35.0,29.44,ESE,120,7.6,10.5,21,0.00,,,0.00,WSDL version 426,2013-05-12 22:03:00,
2013-05-12 17:08:00,77.9,34.9,29.44,SE,132,6.0,10.7,21,0.00,,,0.00,WSDL version 426,2013-05-12 22:08:00,
2013-05-12 17:13:00,78.8,35.4,29.44,SE,133,3.4,10.7,20,0.00,,,0.00,WSDL version 426,2013-05-12 22:13:00,
2013-05-12 17:18:00,79.1,34.9,29.44,ESE,107,5.4,8.7,20,0.00,,,0.00,WSDL version 426,2013-05-12 22:18:00,
2013-05-12 17:23:00,78.3,34.8,29.44,ESE,113,5.8,8.7,21,0.00,,,0.00,WSDL version 426,2013-05-12 22:23:00,
2013-05-12 17:28:00,77.7,34.5,29.44,ESE,121,6.5,9.8,21,0.00,,,0.00,WSDL version 426,2013-05-12 22:28:00,
2013-05-12 17:33:00,78.5,34.6,29.44,SE,127,6.8,11.2,20,0.00,,,0.00,WSDL version 426,2013-05-12 22:33:00,
2013-05-12 17:38:00,77.9,34.3,29.44,SE,145,3.9,11.2,20,0.00,,,0.00,WSDL version 426,2013-05-12 22:38:00,
2013-05-12 17:43:00,76.1,33.3,29.41,ESE,118,5.5,8.7,21,0.00,,,0.00,WSDL version 426,2013-05-12 22:43:00,
2013-05-12 17:48:00,74.6,32.1,29.41,SE,128,4.9,8.7,21,0.00,,,0.00,WSDL version 426,2013-05-12 22:48:00,
2013-05-12 17:53:00,74.7,33.4,29.41,ESE,113,4.4,8.1,22,0.00,,,0.00,WSDL version 426,2013-05-12 22:53:00,
2013-05-12 17:58:00,76.1,34.0,29.41,ESE,115,5.9,8.5,22,0.00,,,0.00,WSDL version 426,2013-05-12 22:58:00,
2013-05-12 18:03:00,76.6,33.8,29.41,ESE,105,7.6,9.6,21,0.00,,,0.00,WSDL version 426,2013-05-12 23:03:00,
2013-05-12 18:08:00,76.0,33.2,29.41,ESE,118,6.0,9.6,21,0.00,,,0.00,WSDL version 426,2013-05-12 23:08:00,
2013-05-12 18:13:00,75.9,33.2,29.41,ESE,105,5.7,9.6,21,0.00,,,0.00,WSDL version 426,2013-05-12 23:13:00,
2013-05-12 18:18:00,76.0,33.7,29.41,ESE,115,7.0,10.1,22,0.00,,,0.00,WSDL version 426,2013-05-12 23:18:00,
2013-05-12 18:23:00,75.9,33.6,29.41,ESE,103,7.3,10.1,21,0.00,,,0.00,WSDL version 426,2013-05-12 23:23:00,
2013-05-12 18:28:00,75.4,33.2,29.41,ESE,115,6.3,10.1,21,0.00,,,0.00,WSDL version 426,2013-05-12 23:28:00,
2013-05-12 18:33:00,76.5,33.7,29.41,ESE,120,8.5,12.3,21,0.00,,,0.00,WSDL version 426,2013-05-12 23:33:00,
2013-05-12 18:38:00,77.0,34.1,29.41,ESE,110,6.5,12.3,21,0.00,,,0.00,WSDL version 426,2013-05-12 23:38:00,
2013-05-12 18:43:00,77.5,34.5,29.38,SE,132,6.6,10.7,21,0.00,,,0.00,WSDL version 426,2013-05-12 23:43:00,
2013-05-12 18:48:00,77.6,34.6,29.38,SE,125,4.6,10.7,21,0.00,,,0.00,WSDL version 426,2013-05-12 23:48:00,
2013-05-12 18:53:00,77.5,34.3,29.38,ESE,121,6.2,8.7,21,0.00,,,0.00,WSDL version 426,2013-05-12 23:53:00,
2013-05-12 18:58:00,77.7,34.7,29.38,SE,125,6.6,10.3,21,0.00,,,0.00,WSDL version 426,2013-05-12 23:58:00,
2013-05-12 19:03:00,77.7,34.7,29.38,ESE,109,5.1,10.3,21,0.00,,,0.00,WSDL version 426,2013-05-13 00:03:00,
2013-05-12 19:08:00,77.6,34.6,29.38,SE,125,5.1,8.7,21,0.00,,,0.00,WSDL version 426,2013-05-13 00:08:00,
2013-05-12 19:13:00,77.5,34.5,29.38,ESE,120,7.0,8.7,21,0.00,,,0.00,WSDL version 426,2013-05-13 00:13:00,
2013-05-12 19:18:00,76.9,34.1,29.38,SE,124,6.5,10.7,21,0.00,,,0.00,WSDL version 426,2013-05-13 00:18:00,
2013-05-12 19:23:00,76.7,33.9,29.38,ESE,113,4.9,10.7,21,0.00,,,0.00,WSDL version 426,2013-05-13 00:23:00,
2013-05-12 19:28:00,76.4,33.6,29.38,ESE,118,5.2,7.8,21,0.00,,,0.00,WSDL version 426,2013-05-13 00:28:00,
2013-05-12 19:33:00,76.2,33.4,29.38,ESE,123,5.6,8.7,21,0.00,,,0.00,WSDL version 426,2013-05-13 00:33:00,
2013-05-12 19:38:00,75.7,33.1,29.38,SE,132,5.1,8.7,21,0.00,,,0.00,WSDL version 426,2013-05-13 00:38:00,
2013-05-12 19:43:00,75.4,32.8,29.38,ESE,113,4.7,8.7,21,0.00,,,0.00,WSDL version 426,2013-05-13 00:43:00,
2013-05-12 19:48:00,74.8,33.5,29.38,ESE,115,4.6,7.6,22,0.00,,,0.00,WSDL version 426,2013-05-13 00:48:00,
2013-05-12 19:53:00,74.3,33.0,29.38,ESE,113,4.0,6.0,22,0.00,,,0.00,WSDL version 426,2013-05-13 00:53:00,
2013-05-12 19:58:00,73.5,32.7,29.38,ESE,115,3.5,5.6,23,0.00,,,0.00,WSDL version 426,2013-05-13 00:58:00,
2013-05-12 20:03:00,72.6,32.8,29.38,ESE,118,3.9,5.6,23,0.00,,,0.00,WSDL version 426,2013-05-13 01:03:00,
2013-05-12 20:08:00,71.2,32.3,29.38,ESE,123,4.6,6.5,24,0.00,,,0.00,WSDL version 426,2013-05-13 01:08:00,
2013-05-12 20:13:00,69.6,31.6,29.38,ESE,110,4.9,7.6,25,0.00,,,0.00,WSDL version 426,2013-05-13 01:13:00,
2013-05-12 20:18:00,68.2,31.3,29.38,ESE,103,3.8,7.6,26,0.00,,,0.00,WSDL version 426,2013-05-13 01:18:00,
2013-05-12 20:23:00,67.3,31.9,29.38,ESE,108,3.2,6.3,27,0.00,,,0.00,WSDL version 426,2013-05-13 01:23:00,
2013-05-12 20:28:00,66.5,32.7,29.38,ESE,104,3.0,4.3,29,-99.99,,,-99.99,WSDL version 426,2013-05-13 01:28:00,
2013-05-12 20:33:00,65.9,34.0,29.38,ESE,105,2.7,4.7,31,-99.99,,,-99.99,WSDL version 426,2013-05-13 01:33:00,
2013-05-12 20:38:00,65.3,35.4,29.38,East,96,3.9,6.5,33,-99.99,,,-99.99,WSDL version 426,2013-05-13 01:38:00,
2013-05-12 20:43:00,64.7,35.0,29.38,East,93,3.6,6.5,33,-99.99,,,-99.99,WSDL version 426,2013-05-13 01:43:00,
2013-05-12 20:48:00,64.3,35.0,29.38,East,84,2.7,4.3,34,-99.99,,,-99.99,WSDL version 426,2013-05-13 01:48:00,
2013-05-12 20:53:00,63.7,34.9,29.38,ENE,68,2.6,4.3,34,-99.99,,,-99.99,WSDL version 426,2013-05-13 01:53:00,
2013-05-12 20:58:00,63.4,35.0,29.38,East,85,2.1,4.3,35,-99.99,,,-99.99,WSDL version 426,2013-05-13 01:58:00,
2013-05-12 21:03:00,63.0,34.9,29.38,ENE,70,2.2,3.8,35,-99.99,,,-99.99,WSDL version 426,2013-05-13 02:03:00,
2013-05-12 21:08:00,62.7,34.7,29.38,ESE,113,0.4,3.4,35,-99.99,,,-99.99,WSDL version 426,2013-05-13 02:08:00,
2013-05-12 21:13:00,62.4,35.0,29.38,SE,129,1.6,3.4,36,-99.99,,,-99.99,WSDL version 426,2013-05-13 02:13:00,
2013-05-12 21:18:00,62.1,34.8,29.38,SSE,158,0.0,3.4,36,-99.99,,,-99.99,WSDL version 426,2013-05-13 02:18:00,
2013-05-12 21:23:00,61.7,34.9,29.38,SSE,158,0.0,2.0,37,-99.99,,,-99.99,WSDL version 426,2013-05-13 02:23:00,
2013-05-12 21:28:00,61.2,35.4,29.38,SSE,158,0.0,0.0,38,-99.99,,,-99.99,WSDL version 426,2013-05-13 02:28:00,
2013-05-12 21:33:00,60.7,35.6,29.38,ENE,68,2.3,3.1,39,-99.99,,,-99.99,WSDL version 426,2013-05-13 02:33:00,
2013-05-12 21:38:00,60.4,36.3,29.38,SSE,158,1.0,3.1,41,0.00,,,0.00,WSDL version 426,2013-05-13 02:38:00,
2013-05-12 21:43:00,60.4,36.6,29.38,ENE,73,1.8,3.1,41,-99.99,,,-99.99,WSDL version 426,2013-05-13 02:43:00,
2013-05-12 21:48:00,60.2,36.4,29.38,ENE,68,0.0,3.1,41,-99.99,,,-99.99,WSDL version 426,2013-05-13 02:48:00,
2013-05-12 21:53:00,60.1,36.3,29.38,East,80,2.0,3.1,41,0.00,,,0.00,WSDL version 426,2013-05-13 02:53:00,
2013-05-12 21:58:00,59.9,36.5,29.38,ENE,68,0.0,3.1,42,0.00,,,0.00,WSDL version 426,2013-05-13 02:58:00,
2013-05-12 22:03:00,59.8,36.6,29.38,ENE,68,0.0,2.0,42,-99.99,,,-99.99,WSDL version 426,2013-05-13 03:03:00,
2013-05-12 22:08:00,59.7,37.0,29.38,ENE,68,0.0,2.0,43,0.00,,,0.00,WSDL version 426,2013-05-13 03:08:00,
2013-05-12 22:13:00,59.6,37.0,29.38,ENE,68,0.6,2.2,43,0.00,,,0.00,WSDL version 426,2013-05-13 03:13:00,
2013-05-12 22:18:00,59.5,37.1,29.38,East,95,0.3,3.4,44,-99.99,,,-99.99,WSDL version 426,2013-05-13 03:18:00,
2013-05-12 22:23:00,59.5,37.6,29.38,ESE,113,0.8,3.8,44,-99.99,,,-99.99,WSDL version 426,2013-05-13 03:23:00,
2013-05-12 22:28:00,59.4,37.5,29.38,ESE,113,0.0,3.8,44,-99.99,,,-99.99,WSDL version 426,2013-05-13 03:28:00,
2013-05-12 22:33:00,59.4,37.6,29.38,ESE,113,0.0,0.0,45,-99.99,,,-99.99,WSDL version 426,2013-05-13 03:33:00,
2013-05-12 22:38:00,59.2,37.9,29.38,SSE,158,0.0,0.0,45,-99.99,,,-99.99,WSDL version 426,2013-05-13 03:38:00,
2013-05-12 22:43:00,59.1,37.8,29.38,SSE,158,0.0,0.0,45,-99.99,,,-99.99,WSDL version 426,2013-05-13 03:43:00,
2013-05-12 22:48:00,58.9,37.6,29.38,SSE,158,0.2,2.0,45,-99.99,,,-99.99,WSDL version 426,2013-05-13 03:48:00,
2013-05-12 22:53:00,58.8,38.1,29.38,SSW,203,1.0,2.2,46,-99.99,,,-99.99,WSDL version 426,2013-05-13 03:53:00,
2013-05-12 22:58:00,58.6,38.1,29.38,SSW,200,0.8,2.2,47,-99.99,,,-99.99,WSDL version 426,2013-05-13 03:58:00,
2013-05-12 23:01:00,58.3,38.1,29.38,South,191,1.9,2.9,47,-99.99,,,-99.99,WSDL version 426,2013-05-13 04:01:00,
2013-05-12 23:02:00,58.2,38.0,29.38,SSW,203,1.8,2.9,47,-99.99,,,-99.99,WSDL version 426,2013-05-13 04:02:00,
2013-05-12 23:03:00,58.2,38.0,29.38,SSW,203,1.3,2.9,47,-99.99,,,-99.99,WSDL version 426,2013-05-13 04:03:00,
2013-05-12 23:04:00,58.1,38.1,29.38,SSW,203,1.1,2.9,48,-99.99,,,-99.99,WSDL version 426,2013-05-13 04:04:00,
2013-05-12 23:08:00,57.9,38.3,29.38,SSW,194,1.3,3.1,48,0.00,,,0.00,WSDL version 426,2013-05-13 04:08:00,
2013-05-12 23:13:00,57.7,38.6,29.38,SSW,195,2.0,3.1,49,-99.99,,,-99.99,WSDL version 426,2013-05-13 04:13:00,
2013-05-12 23:18:00,57.6,38.5,29.38,SSW,203,0.9,2.9,48,-99.99,,,-99.99,WSDL version 426,2013-05-13 04:18:00,
2013-05-12 23:23:00,57.6,38.2,29.38,SSW,203,0.0,2.2,49,-99.99,,,-99.99,WSDL version 426,2013-05-13 04:23:00,
2013-05-12 23:28:00,57.4,38.4,29.38,SSW,200,0.0,0.0,49,0.00,,,0.00,WSDL version 426,2013-05-13 04:28:00,
2013-05-12 23:33:00,57.3,38.5,29.38,SSE,163,0.7,2.0,50,0.00,,,0.00,WSDL version 426,2013-05-13 04:33:00,
2013-05-12 23:38:00,57.1,38.7,29.38,SSE,158,1.7,2.9,50,-99.99,,,-99.99,WSDL version 426,2013-05-13 04:38:00,
2013-05-12 23:43:00,56.9,39.0,29.38,SSE,158,1.8,2.9,51,-99.99,,,-99.99,WSDL version 426,2013-05-13 04:43:00,
2013-05-12 23:48:00,56.8,38.9,29.38,SSE,163,1.9,3.1,51,-99.99,,,-99.99,WSDL version 426,2013-05-13 04:48:00,
2013-05-12 23:53:00,56.8,38.8,29.38,SSE,158,1.6,3.6,51,0.00,,,0.00,WSDL version 426,2013-05-13 04:53:00,
2013-05-12 23:58:00,56.8,38.9,29.35,SSE,158,0.3,3.6,51,-99.99,,,-99.99,WSDL version 426,2013-05-13 04:58:00,